Location: Palmerston North
(40.3500°S, 175.6170°E)
Time: 08:30:03
(UTC+13:00)

ISS - Pass Details

Date: 21 October 2019
Orbit: 412 x 421 km, 51.6° (Epoch: 18 November)

Event Time Altitude Azimuth Distance (km) Brightness Sun altitude
Rises 22:26:03 0° 258° (WSW) 2,375 0.9 -27.5°
Reaches altitude 10° 22:28:45 10° 235° (SW) 1,516 0.0 -27.9°
Maximum altitude 22:30:57 16° 194° (SSW) 1,207 -0.8 -28.2°
Enters shadow 22:31:20 16° 186° (S) 1,218 -0.9 -28.2°
